Regional Weather Roundup
Issued by NWS

Home | Current Version | Previous Version | Graphics & Text | Print | Product List | Glossary On
Versions: 1 2 3 4 5 6 7 8 9 10 11 12 13 14 15 16 17 18 19 20 21 22 23 24 25 26 27 28 29 30 31 32 33 34 35 36 37 38 39 40 41 42 43 44 45 46 47 48 49 50
000
ASUS43 KTOP 170759
RWRKS

WEATHER ROUNDUP FOR KANSAS
NATIONAL WEATHER SERVICE GOODLAND KS
200 AM CST SAT FEB 17 2018

NOTE:  "FAIR" INDICATES FEW OR NO CLOUDS BELOW 12,000 FEET WITH NO
SIGNIFICANT WEATHER AND/OR OBSTRUCTIONS TO VISIBILITY.

KSZ001>006-013>018-027>032-041>047-170900-
NORTHWEST KANSAS

CITY           SKY/WX    TMP DP  RH WIND       PRES   REMARKS
GOODLAND       PTCLDY    25  18  74 NW6       29.83R
HAYS           CLOUDY    30  17  58 S9        29.91F
HILL CITY      CLOUDY    28  17  63 CALM      29.90S
RUSSELL        PTCLDY    32  16  51 S17       29.91F WCI  21
$$

KSZ061>065-074>080-084>089-170900-
SOUTHWEST KANSAS

CITY           SKY/WX    TMP DP  RH WIND       PRES   REMARKS
DODGE CITY     CLOUDY    32  16  51 S21G30    29.88F WCI  20
ELKHART        MOCLDY    43  35  74 SW20G25   29.86S
GARDEN CITY    CLOUDY    31  18  58 S14       29.84F WCI  21
GREAT BEND     PTCLDY    32  16  51 S20       29.93F WCI  20
LIBERAL        CLOUDY    38  30  73 SW17      29.88F WCI  28
$$

KSZ066>073-081>083-090>101-170900-
SOUTHEAST KANSAS

CITY           SKY/WX    TMP DP  RH WIND       PRES   REMARKS
CHANUTE        CLOUDY    36  23  59 SE6       30.08F
COFFEYVILLE    LGT RAIN  36  30  79 SE5       30.09F
HUTCHINSON     CLOUDY    35  19  52 S14       29.99F WCI  26
MEDICINE LODGE   N/A     36  19  50 S13G22    30.00F WCI  27
NEWTON         CLOUDY    34  18  52 S13       30.01F WCI  25
PARSONS        FLURRIES  38  25  59 VRB3      30.10F
WICHITA INTL   CLOUDY    37  21  52 S13       30.02F WCI  29
WICHITA JABRA  CLOUDY    35  20  54 S12       30.03F WCI  27
WICHITA MCCONL CLOUDY    36  19  49 S10       30.02F WCI  28
WINFIELD       CLOUDY    36  24  62 S16       30.05F WCI  26
$$

KSZ007>012-019>026-033>040-048>060-102>105-170900-
NORTHEAST KANSAS

CITY           SKY/WX    TMP DP  RH WIND       PRES   REMARKS
CONCORDIA      CLOUDY    29  14  53 S9        29.98F
EMPORIA        CLOUDY    32  17  54 SE9       30.05F
LAWRENCE       CLOUDY    30  16  56 E8        30.09F
MANHATTAN      CLOUDY    30  16  56 NE3       30.05F
OLATHE IND     CLOUDY    30  11  45 SE6       30.11F
OLATHE EXE     CLOUDY    30  10  43 SE5       30.09F
SALINA         CLOUDY    33  16  49 SE9       30.01F
TOPEKA BILLARD MOCLDY    31  15  52 E6        30.08F
TOPEKA FORBES  CLOUDY    31  15  52 E5        30.06F
$$




USA.gov is the U.S. government's official web portal to all federal, state and local government web resources and services.